KINEIS-1D

Last updated on Thu Sep 24 2026 00:03:12 GMT+0000 (Coordinated Universal Time)

1 60082U 24114D 26266.58764291 .00000371 00000+0 60724-4 0 9995 2 60082 97.9868 285.6545 0000833 160.9931 199.1310 14.76428733121646
UTC large
Height (km)
Speed (km/s)
/
Latitude / Longitude
Inclination (degrees)
Orbital Period (minutes)
Azimuth
Elevation
Range (km)
Doppler Factor

Next 0 passes for location: London (51.5072 / 0.1276)

No passes found over London.
KINEIS-1D